Location: Bannatyne
(13.0833°N, 59.5333°W)
Time: 15:23:38
(UTC+00:00)

N. Korean satellite - Visible Passes

Search period start: 20 June 2021 00:00
Search period end: 30 June 2021 00:00
Orbit: 450 x 500 km, 97.2° (Epoch: 19 June)

Date Brightness Start Highest point End Pass type
(mag) Time Alt. Az. Time Alt. Az. Time Alt. Az.
21 Jun 7.1 08:53:40 10° NNE 08:57:16 62° E 09:00:54 10° S visible
22 Jun 9.1 08:27:09 10° NE 08:30:01 22° E 08:32:54 10° SSE visible
24 Jun 6.6 09:04:57 10° N 09:08:37 82° W 09:12:16 10° SSW visible
25 Jun 8.3 08:38:02 10° NE 08:41:22 33° E 08:44:41 10° SSE visible
26 Jun 9.6 08:12:26 10° ENE 08:14:04 13° E 08:15:42 10° SE visible
28 Jun 7.5 08:49:05 10° NNE 08:52:39 52° E 08:56:14 10° S visible
29 Jun 9.3 08:22:43 10° NE 08:25:22 19° E 08:28:00 10° SE visible
